Home   Weather   Monthey   Past weeks

Flag for Switzerland Past Weather in Monthey, Valais, Switzerland — Yesterday and Last 2 Weeks

Now
30 °F

Chilly.


Feels Like: 30 °F
Forecast: 34 / 51 °F
Wind: No wind

Location: Aigle

Current Time: Dec 4, 2016 at 9:27:42 pm

Latest Report: Dec 4, 2016 at 8:00 pm


Visibility: N/A

Pressure: 30.35 "Hg

Humidity: 96%

Dew Point: 29 °F

Location of MontheyLocation

Past Weather in Monthey — Graph

°F

Monthey Temperature Yesterday

Maximum temperature yesterday: 39 °F (at 4:00 pm)
Minimum temperature yesterday: 29 °F (at 12:00 am)
Average temperature yesterday: 35 °F

High & Low Weather Summary for the Past Weeks

 TemperatureHumidityPressure
High67 °F (Nov 21, 6:00 pm)100% (Nov 27, 1:00 am)30.64 "Hg (Nov 27, 1:00 am)
Low27 °F (Dec 4, 8:00 am)30% (Nov 20, 5:00 pm)29.55 "Hg (Nov 21, 6:00 pm)
Average42 °F80%30.08 "Hg
* Reported Nov 19 8:00 pm — Dec 4 8:00 pm, Monthey, Weather by CustomWeather, © 2016

Note: Actual official high and low records may vary slightly from our data, if they occured in-between our weather recording intervals... More about our weather records

Advertising

Monthey Weather History for the Previous 24 Hours

Scroll right to see more
 ConditionsComfort  
Time TempWeatherWind HumidityBarometerVisibility
8:00 pm
Sun, Dec 4
30 °FChilly.No wind96%30.35 "HgN/A
7:00 pm31 °FFog.1 mph93%30.33 "Hg6 mi
6:00 pm32 °FChilly.2 mph95%30.32 "HgN/A
5:00 pm33 °FChilly.No wind91%30.30 "HgN/A
4:00 pm35 °FFog.No wind92%30.29 "Hg9 mi
3:00 pm40 °FQuite cool.3 mph75%30.28 "HgN/A
2:00 pm40 °FQuite cool.5 mph76%30.28 "HgN/A
1:00 pm40 °FSunny.6 mph75%30.29 "Hg17 mi
12:00 pm38 °FChilly.5 mph77%30.31 "HgN/A
11:00 am35 °FChilly.No wind81%30.33 "HgN/A
10:00 am31 °FSunny.No wind94%30.34 "Hg17 mi
9:00 am28 °FChilly.2 mph95%30.34 "HgN/A
8:00 am27 °FChilly.1 mph96%30.32 "HgN/A
7:00 am28 °FClear.1 mph96%30.30 "Hg14 mi
6:00 am29 °FChilly.2 mph94%30.29 "HgN/A
5:00 am29 °FChilly.2 mph95%30.29 "HgN/A
4:00 am29 °FClear.3 mph95%30.28 "Hg19 mi
3:00 am30 °FChilly.1 mph94%30.28 "HgN/A
2:00 am30 °FChilly.No wind93%30.27 "HgN/A
1:00 am32 °FChilly.3 mph91%30.26 "HgN/A
12:00 am33 °FChilly.3 mph88%30.26 "HgN/A
11:00 pm
Sat, Dec 3
34 °FChilly.3 mph87%30.25 "HgN/A
10:00 pm36 °FChilly.5 mph80%30.24 "HgN/A
9:00 pm37 °FChilly.3 mph80%30.23 "HgN/A
Weather by CustomWeather, © 2016

See weather overviewHow to use our weather pages